Location: Hoyos del Collado
(40.3594°N, 5.2003°W)
Time: 12:37:32
(UTC+00:00)

BlueWalker 3 - Visible Passes

Search period start: 23 June 2024 00:00
Search period end: 03 July 2024 00:00
Orbit: 480 x 493 km, 53.2° (Epoch: 22 June)

Date Brightness Start Highest point End Pass type
(mag) Time Alt. Az. Time Alt. Az. Time Alt. Az.
23 Jun 4.6 01:01:37 10° NNW 01:04:24 19° NNE 01:07:10 10° ENE visible
23 Jun 1.7 02:39:14 10° NW 02:42:58 89° SW 02:46:43 10° SE visible
23 Jun 4.8 21:17:09 10° WNW 21:19:54 19° NNW 21:22:39 10° NNE visible
23 Jun 5.2 22:57:59 10° NNW 22:59:16 11° N 23:00:33 10° NNE visible
24 Jun 4.6 00:35:55 10° NNW 00:38:38 19° NNE 00:41:21 10° ENE visible
24 Jun 1.8 02:13:31 10° NW 02:17:15 85° NE 02:18:30 40° SE visible
24 Jun 4.8 20:51:19 10° WNW 20:54:08 20° NNW 20:56:57 10° NNE visible
24 Jun 5.1 22:32:12 10° NNW 22:33:29 11° N 22:34:46 10° NNE visible
25 Jun 4.6 00:10:13 10° NNW 00:12:53 18° NNE 00:15:32 10° ENE visible
25 Jun 2.5 01:47:47 10° NW 01:50:35 48° NW 01:50:35 48° NW visible
25 Jun 4.7 20:25:29 10° WNW 20:28:22 20° NNW 20:31:15 10° NNE visible
25 Jun 5.1 22:06:24 10° NNW 22:07:42 11° N 22:09:00 10° NNE visible
25 Jun 4.6 23:44:31 10° NNW 23:47:06 17° NNE 23:49:41 10° ENE visible
26 Jun 3.3 01:22:03 10° NW 01:24:13 32° NW 01:24:13 32° NW visible
26 Jun 5.0 21:40:34 10° NNW 21:41:54 11° N 21:43:13 10° NNE visible
26 Jun 4.6 23:18:49 10° NNW 23:21:19 17° NNE 23:23:50 10° ENE visible
27 Jun 3.5 00:56:19 10° NW 00:58:20 30° NW 00:58:20 30° NW visible
27 Jun 5.0 21:14:44 10° NNW 21:16:06 12° N 21:17:27 10° NNE visible
27 Jun 4.6 22:53:05 10° NNW 22:55:31 16° NNE 22:57:58 10° ENE visible
28 Jun 3.5 00:30:35 10° NW 00:32:42 31° NNW 00:32:42 31° NNW visible
28 Jun 4.9 20:48:53 10° NNW 20:50:17 12° N 20:51:40 10° NNE visible
28 Jun 4.6 22:27:21 10° NNW 22:29:44 16° NNE 22:32:06 10° ENE visible
29 Jun 3.3 00:04:49 10° NW 00:07:13 35° NNW 00:07:13 35° NNW visible
29 Jun 4.6 22:01:36 10° NNW 22:03:54 15° NNE 22:06:13 10° NE visible
29 Jun 3.1 23:39:04 10° NW 23:41:50 41° NNW 23:41:50 41° NNW visible
30 Jun 4.6 21:35:52 10° NNW 21:38:05 15° NNE 21:40:20 10° NE visible
30 Jun 2.7 23:13:18 10° NW 23:16:31 47° N 23:16:31 47° N visible
01 Jul 4.5 21:10:05 10° NNW 21:12:15 15° NNE 21:14:25 10° NE visible
01 Jul 2.6 22:47:31 10° NW 22:51:09 47° NE 22:51:16 47° NE visible
02 Jul 4.5 20:44:19 10° NNW 20:46:25 14° NNE 20:48:31 10° NE visible
02 Jul 2.7 22:21:45 10° NW 22:25:21 44° NNE 22:26:03 38° ENE visible
